Location: Tauranga
(37.6860°S, 176.1670°E)
Time: 02:57:22
(UTC+13:00)

NOSS 2-1 (E) - Pass Details

Date: 24 January 2019
Orbit: 462 x 1742 km, 63.3° (Epoch: 04 October)

Event Time Altitude Azimuth Distance (km) Brightness Sun altitude
Rises 22:34:41 0° 212° (SSW) 4,400 9.4 -20.1°
Reaches altitude 10° 22:38:02 10° 208° (SSW) 3,220 8.3 -20.6°
Maximum altitude 22:45:31 62° 128° (SE) 1,074 4.6 -21.5°
Enters shadow 22:47:27 41° 67° (ENE) 1,259 4.6 -21.8°
